User: anonymous   Login
Location: Killarney Provincial Park Observatory
(46.0124°N, 81.4000°W)
Time: 07:20:13
(UTC-05:00)
Language:

Iridium 22 - Orbit

View from above orbital plane
View from above orbital plane
View from above satellite
View from above satellite

Ground track
Ground track

The orbit data is extracted from the following two-line orbital elements,

1 24907U 97043E   17056.56200615  .00000197  00000-0  63200-4 0  9991
2 24907  86.3969 302.7637 0002074  83.7046 276.4386 14.34219873 21836
Epoch (UTC): 25 February 2017 13:29:17
Eccentricity: 0.0002074
inclination: 86.3969°
perigee height: 776 km
apogee height: 779 km
right ascension of ascending node: 302.7637°
argument of perigee: 83.7046°
revolutions per day: 14.34219873
mean anomaly at epoch: 276.4386°
orbit number at epoch: 2183

The dashed part of the orbit path shows where the satellite is in the earth's shadow,  

DLR